Location: Bratislava
(0.0000°N, 17.1167°E)
Time: 04:40:37
(UTC+01:00)

Cosmos 2297 - Pass Details

Date: 24 January 2021
Orbit: 834 x 860 km, 71.0° (Epoch: 04 March)

Event Time Altitude Azimuth Distance (km) Brightness Sun altitude
Rises 18:42:24 0° 185° (S) 3,380 7.2 -9.1°
Reaches altitude 10° 18:44:55 10° 179° (S) 2,445 6.4 -9.7°
Maximum altitude 18:50:19 49° 105° (ESE) 1,064 3.9 -11.0°
Drops below altitude 10° 18:55:43 10° 31° (NNE) 2,449 5.7 -12.3°
Enters shadow 18:56:17 - 30° (NNE) 2,653 5.8 -12.4°
